Regional Weather Roundup
Issued by NWS Little Rock, AR

Home | Current Version | Previous Version | Graphics & Text | Print | Product List | Glossary On
Versions: 1 2 3 4 5 6 7 8 9 10 11 12 13 14 15 16 17 18 19 20 21 22 23 24 25 26 27 28 29 30 31 32 33 34 35 36 37 38 39 40 41 42 43 44 45 46 47 48 49 50
000
ASUS44 KLZK 122305
RWRLZK

WEATHER ROUNDUP FOR ARKANSAS
NATIONAL WEATHER SERVICE LITTLE ROCK AR
500 PM CST TUE DEC 12 2017

NOTE: "FAIR" INDICATES FEW OR NO CLOUDS BELOW 12,000 FEET WITH NO
SIGNIFICANT WEATHER AND/OR OBSTRUCTIONS TO VISIBILITY.

ARZ001-003-010-029-130000-
NORTHWEST ARKANSAS

CITY           SKY/WX    TMP DP  RH WIND       PRES   REMARKS
FAYETTEVILLE   PTCLDY    39   9  29 W7        30.21F
FORT SMITH     CLEAR     47  13  25 W9        30.23F
HARRISON       CLEAR     39  10  30 NW7       30.17F
BENTONVILLE    CLEAR     38   9  30 W7        30.22F
ROGERS         CLEAR     37   9  31 W7        30.20F
SILOAM SPGS    PTCLDY    38  11  32 NW8       30.22F
HIGHFILL       CLEAR     37  11  34 W5        30.20F
SPRINGDALE     CLEAR     39   7  26 W9        30.21F
$$

ARZ004-005-016-130000-
NORTH CENTRAL ARKANSAS

CITY           SKY/WX    TMP DP  RH WIND       PRES   REMARKS
BATESVILLE     CLEAR     43  13  29 NW5       30.18F
FLIPPIN        CLEAR     42  11  28 NW6       30.19F
MTN HOME       CLEAR     40  11  30 N5        30.17F
$$

ARZ040-041-130000-
WEST CENTRAL ARKANSAS

CITY           SKY/WX    TMP DP  RH WIND       PRES   REMARKS
MENA           CLEAR     48  12  23 CALM      30.22S
MOUNT IDA      CLEAR     48  13  24 NW5       30.19S
$$

ARZ009-017-025-026-028-130000-
NORTHEAST ARKANSAS

CITY           SKY/WX    TMP DP  RH WIND       PRES   REMARKS
JONESBORO      CLEAR     43  15  32 NW5       30.17F
NEWPORT        CLEAR     40  16  37 NW7       30.18F
WALNUT RIDGE   CLEAR     40  13  33 NW9       30.17S
BLYTHEVILLE    CLEAR     38  20  48 NW7       30.17R
NW BLYTHEVILLE CLEAR     43  19  39 NW7       30.16S
$$

ARZ022-023-033-042-044-130000-
CENTRAL ARKANSAS

CITY           SKY/WX    TMP DP  RH WIND       PRES   REMARKS
LITTLE ROCK    CLEAR     47  14  26 W7        30.19F
N LITTLE ROCK    N/A     47  17  31 W3        30.20F
JACKSONVILLE   CLEAR     48  17  28 W8        30.17F
SEARCY         CLEAR     46  15  28 NW5       30.18F
HOT SPRINGS    CLEAR     50  14  23 NW5       30.20S
RUSSELLVILLE   CLEAR     47  12  24 W8        30.18F
CLINTON        FAIR      46  12  25 VRB6      30.18F
$$

ARZ036-130000-
EAST ARKANSAS

CITY           SKY/WX    TMP DP  RH WIND       PRES   REMARKS
WEST MEMPHIS   CLEAR     40  24  53 NW5       30.17S
$$

ARZ050-053-066-070-073-130000-
SOUTHWEST ARKANSAS

CITY           SKY/WX    TMP DP  RH WIND       PRES   REMARKS
ARKADELPHIA    FAIR      50  15  24 N5        30.21S
CAMDEN         CLEAR     54  12  19 CALM      30.19S
TEXARKANA      CLEAR     52  15  23 W8        30.22S
EL DORADO      CLEAR     48  24  39 CALM      30.19F
DE QUEEN       CLEAR     51  14  22 NW8       30.21S
$$

ARZ056-057-069-130000-
SOUTHEAST ARKANSAS

CITY           SKY/WX    TMP DP  RH WIND       PRES   REMARKS
PINE BLUFF     CLEAR     47  17  30 N5        30.19F
STUTTGART      CLEAR     46  20  35 NW5       30.18F
MONTICELLO     CLEAR     50  20  30 NE3       30.19R

$$





USA.gov is the U.S. government's official web portal to all federal, state and local government web resources and services.